Wind_Speed
20 21 21 21 22 22 23 23 24 23 22 21 22 23 23 23 24 24 26 27 28 29 30 31 32 33 34 35 36 37 38 39 40 41 41 42 43 44 44 45 46 47 48 49
22 22 23 23 23 24 25 25 25 25 24 24 25 25 26 26 26 27 28 29 30 31 32 33 34 35 35 36 36 38 39 40 41 41 42 43 44 44 45 46 47 48 49 50
25 25 26 25 24 25 26 26 26 26 25 26 27 28 28 28 29 30 30 31 32 33 33 34 35 36 36 37 38 39 40 41 42 43 43 44 45 45 46 47 47 48 49 50
29 28 28 27 27 27 28 28 29 29 29 29 29 30 30 31 31 32 32 33 34 34 35 36 37 37 38 39 40 41 41 42 43 44 44 45 45 46 47 47 47 48 49 50
31 31 30 29 29 30 30 30 30 30 30 31 31 32 32 32 33 33 34 35 35 36 36 37 39 40 40 40 41 42 42 43 44 44 45 46 46 46 47 47 48 49 49 50
33 33 33 32 32 31 32 32 31 32 32 33 33 33 33 34 34 34 34 35 36 37 37 38 39 40 41 41 42 42 43 44 44 45 45 46 46 47 47 47 48 48 49 50
36 36 35 34 34 34 34 34 34 34 34 35 35 35 35 36 36 36 36 36 37 38 38 39 40 41 41 42 43 44 44 44 45 45 46 46 46 47 47 47 48 49 50 50
38 38 37 36 36 36 36 36 36 36 36 36 36 37 37 37 37 38 38 38 39 39 40 40 41 42 42 43 44 45 45 45 45 46 46 46 47 47 47 48 49 49 50 50
41 40 40 39 39 39 40 40 40 39 39 39 39 39 39 39 39 40 41 41 41 42 42 42 43 43 44 44 44 45 45 45 46 46 46 46 47 47 48 48 49 50 50 51
42 41 41 41 42 42 43 43 42 42 42 42 42 42 42 42 42 43 43 43 43 43 43 43 43 44 44 44 45 45 45 45 45 45 46 46 46 47 48 48 49 50 51 52
44 43 43 43 43 44 45 45 45 45 45 45 45 45 45 45 45 44 44 44 44 44 44 44 44 44 44 44 44 45 45 44 44 45 45 46 47 47 48 49 50 51 52 52
44 44 45 45 44 45 46 46 47 47 47 47 47 47 47 46 46 46 45 45 45 45 45 45 45 45 45 45 45 45 45 45 45 45 46 47 48 48 49 49 50 51 52 52
45 46 47 46 46 46 46 46 47 47 48 48 48 48 47 46 46 46 46 46 45 45 45 45 45 45 45 45 45 45 45 45 45 46 46 47 48 49 49 49 49 50 51 51
47 47 47 47 47 47 47 47 47 47 47 47 47 47 47 46 46 46 46 45 45 45 45 45 45 45 45 44 45 46 46 46 46 46 47 47 48 49 49 49 49 48 49 49
47 47 47 47 47 47 47 47 47 46 46 46 45 45 45 44 44 43 43 43 43 43 43 44 44 43 44 44 44 45 45 45 45 45 46 46 47 47 47 47 47 47 47 47
46 46 45 45 45 45 45 44 44 43 43 43 42 42 42 41 41 41 40 41 41 41 41 41 41 41 42 42 42 42 42 42 43 43 44 44 45 45 45 46 46 46 46 45
42 43 43 43 43 43 42 42 41 41 40 40 40 39 39 39 39 39 39 39 39 40 40 40 40 40 41 41 40 40 40 41 42 42 43 43 44 44 45 45 45 45 45 45
40 40 40 40 39 39 39 39 39 39 39 39 38 38 38 38 38 38 38 38 38 39 39 40 40 40 40 39 39 39 40 40 41 41 42 43 43 44 44 44 44 44 45 45
37 37 36 36 37 37 37 37 37 37 37 38 38 37 37 37 37 37 37 37 37 38 38 39 39 39 38 38 38 39 39 40 41 41 42 42 43 43 44 44 44 44 44 44
34 34 34 35 35 35 35 35 35 36 36 36 36 36 35 35 36 36 36 36 36 36 36 37 37 37 37 37 38 39 39 40 40 41 42 43 43 42 42 43 43 44 43 42
34 34 34 34 34 34 35 34 34 34 33 33 33 34 34 34 34 34 35 34 34 35 35 35 35 36 37 37 38 39 39 40 40 41 41 41 41 41 40 41 41 42 41 39
34 33 33 34 34 33 33 33 32 32 33 33 33 33 34 34 34 34 34 34 34 34 34 35 35 36 37 38 38 39 39 40 40 40 39 39 39 39 39 39 40 39 38 37
32 32 33 33 33 32 32 32 32 33 33 33 34 34 34 35 34 34 34 34 34 35 35 36 36 37 38 38 38 39 39 40 39 39 39 39 38 38 38 37 37 36 35 34
32 32 33 33 33 33 33 33 33 32 32 33 33 34 34 34 34 34 34 35 35 35 36 37 38 38 39 39 39 39 38 38 38 38 38 37 37 36 36 36 34 33 32 31
34 34 34 33 34 34 34 33 33 33 33 34 34 34 35 35 35 35 36 36 36 37 37 37 37 38 38 38 37 37 37 37 36 36 36 35 35 34 33 32 30 29 28 26
34 34 34 34 35 35 35 35 35 35 35 35 35 35 36 36 36 36 36 36 36 36 36 36 36 36 36 36 36 36 36 35 35 35 34 33 32 31 29 28 27 26 25 24
34 34 34 34 34 35 35 35 35 36 36 36 36 36 36 36 36 35 36 36 36 36 36 35 35 35 35 34 34 34 34 34 33 33 31 30 29 28 27 25 24 23 22 21
Wind_Direction
293 291 289 288 287 286 287 287 286 285 282 281 279 275 273 273 272 270 269 269 268 267 267 267 268 268 268 268 269 271 272 273 274 275 276 277 278 279 279 279 279 280 280 279
292 290 288 287 286 285 286 287 286 284 282 280 277 275 274 273 271 270 269 269 269 269 270 270 270 270 270 270 271 273 274 274 275 276 277 278 278 279 279 280 280 281 281 281
290 288 287 287 287 284 284 284 283 283 282 279 278 276 275 274 272 271 271 270 270 269 269 270 270 271 271 271 273 274 275 275 275 276 277 278 279 280 280 281 281 281 282 282
288 289 286 290 285 284 284 283 283 282 281 280 279 277 276 275 274 273 273 272 271 271 271 271 271 271 271 272 273 274 274 275 276 277 278 279 280 281 282 282 282 283 283 283
286 286 287 287 286 285 284 283 283 282 281 279 278 277 276 275 274 274 274 273 272 273 273 273 272 272 272 273 274 275 276 276 277 278 279 280 281 282 282 283 283 284 284 284
283 284 285 287 286 285 284 283 283 282 281 280 279 278 277 277 276 275 275 275 274 274 274 275 275 275 275 276 277 277 277 278 278 279 280 281 282 282 283 284 284 285 285 285
282 282 283 285 284 284 282 283 282 281 280 280 280 280 279 278 277 276 276 275 275 276 276 276 276 276 277 277 278 278 278 279 279 280 281 281 282 283 284 284 285 285 286 286
280 280 282 283 282 281 280 280 280 280 280 279 279 279 278 279 278 277 276 276 276 277 278 278 278 278 279 279 279 279 280 280 280 280 280 281 282 283 284 285 286 287 287 287
278 279 279 280 279 279 279 279 279 279 278 278 278 278 277 277 278 277 277 277 278 278 279 279 279 280 279 280 280 280 280 280 280 281 281 282 282 284 285 286 287 288 288 289
277 277 278 278 278 278 278 278 277 278 278 278 278 278 278 278 278 278 278 278 278 278 278 279 280 280 280 280 280 280 280 281 281 281 281 282 283 284 286 287 288 289 290 290
276 277 277 277 277 276 276 277 277 276 277 277 277 277 278 278 278 279 278 278 278 278 278 279 279 280 280 280 280 281 281 281 282 282 282 282 283 285 287 288 289 290 291 292
276 276 276 277 277 276 277 277 277 277 277 277 277 278 277 277 277 277 278 278 278 278 278 279 279 279 279 280 280 281 281 281 282 282 282 283 284 285 287 289 290 291 292 292
275 275 276 277 278 278 278 277 277 277 277 278 278 279 278 278 277 277 277 277 277 278 278 279 279 279 279 279 280 280 281 281 281 282 282 283 285 287 288 289 290 291 291 291
273 274 275 276 277 277 278 278 277 278 278 279 279 279 279 279 278 277 277 277 277 277 278 279 279 279 279 280 280 281 281 281 282 283 284 285 286 287 288 289 290 291 291 291
273 274 275 276 276 277 278 278 278 278 278 278 279 279 279 279 279 278 277 277 277 278 278 279 279 280 280 281 281 281 282 282 283 284 285 286 287 288 289 290 291 292 291 291
272 274 276 276 277 277 277 278 277 277 277 278 279 279 279 280 279 278 278 278 278 278 278 279 280 280 281 281 281 282 283 283 284 285 287 288 289 289 290 290 292 292 292 292
273 274 275 276 277 277 277 277 277 277 278 279 279 279 279 278 279 278 278 278 278 278 278 279 280 281 281 281 282 282 283 285 285 286 287 288 289 289 290 291 292 293 293 293
274 275 275 276 277 277 277 277 278 278 278 279 279 278 278 278 279 278 278 277 278 278 278 279 279 280 280 281 282 282 284 285 286 287 288 288 289 290 291 291 292 293 294 294
275 276 277 277 278 278 279 279 279 278 278 277 277 278 278 278 278 278 278 278 278 277 278 279 280 281 281 282 282 283 284 285 287 288 289 290 290 290 291 291 292 294 295 295
275 277 278 279 279 279 279 279 279 278 277 276 276 277 278 278 278 279 279 279 279 279 280 281 282 283 283 283 284 284 286 287 289 289 290 291 291 291 291 292 293 295 295 294
277 278 279 280 280 280 280 279 279 279 279 278 277 278 278 280 280 280 281 280 280 280 281 282 283 284 284 285 286 287 288 289 290 291 291 291 291 292 292 293 294 295 295 293
279 279 280 280 281 282 281 280 279 279 279 279 278 279 279 281 282 283 283 282 282 282 282 283 284 285 287 288 288 289 290 290 291 291 291 292 292 292 293 294 295 295 293 292
281 280 280 280 281 282 282 281 280 278 278 278 278 279 280 281 282 283 283 283 283 283 284 284 286 287 288 289 289 290 291 291 291 291 292 292 292 292 292 294 295 294 293 293
282 283 282 282 282 282 282 281 281 281 280 280 280 280 280 281 282 284 285 284 284 284 285 287 288 288 289 289 290 290 290 291 291 291 292 292 292 292 292 293 293 293 293 293
282 282 282 282 281 281 281 281 281 281 281 282 282 282 281 281 282 283 285 285 285 286 287 288 288 288 289 289 289 290 290 290 290 291 291 291 291 291 292 292 292 293 293 292
282 282 282 281 281 281 280 280 280 280 281 282 282 283 282 282 283 285 286 286 286 287 287 288 288 289 289 289 289 289 290 290 290 291 291 291 291 290 290 290 291 291 291 291
282 283 282 282 282 282 281 281 281 282 282 283 284 284 283 283 283 284 285 286 286 287 287 287 287 287 288 288 289 289 289 290 290 291 291 291 290 290 289 289 290 290 290 291
Height
5687 5685 5684 5683 5682 5680 5679 5678 5678 5678 5676 5677 5675 5674 5673 5673 5672 5672 5672 5672 5671 5671 5670 5670 5669 5669 5668 5667 5667 5666 5665 5664 5662 5661 5659 5658 5656 5654 5652 5650 5648 5646 5645 5643
5681 5680 5678 5677 5676 5675 5673 5672 5671 5670 5670 5670 5667 5666 5666 5665 5665 5664 5664 5663 5663 5662 5662 5661 5660 5659 5659 5658 5657 5656 5655 5653 5651 5649 5648 5646 5644 5642 5640 5637 5635 5633 5631 5629
5674 5673 5671 5671 5671 5668 5667 5666 5664 5663 5664 5661 5660 5659 5658 5658 5657 5656 5655 5654 5654 5653 5652 5651 5650 5649 5649 5647 5646 5645 5643 5642 5640 5638 5636 5634 5631 5629 5627 5624 5622 5620 5617 5615
5665 5665 5663 5666 5662 5661 5659 5658 5656 5655 5654 5653 5652 5650 5649 5649 5648 5647 5646 5645 5644 5643 5642 5641 5640 5639 5638 5636 5635 5634 5632 5630 5628 5626 5623 5621 5618 5616 5613 5611 5608 5606 5603 5601
5656 5655 5654 5656 5654 5652 5650 5649 5647 5646 5645 5643 5642 5641 5640 5639 5638 5637 5636 5635 5634 5632 5631 5630 5629 5628 5626 5625 5623 5621 5619 5617 5615 5613 5611 5608 5606 5603 5600 5597 5595 5592 5589 5587
5647 5645 5645 5647 5644 5641 5641 5639 5638 5636 5634 5633 5632 5632 5631 5629 5628 5626 5625 5624 5623 5621 5620 5619 5617 5616 5614 5613 5611 5609 5607 5605 5602 5600 5598 5595 5592 5590 5587 5584 5581 5578 5575 5572
5637 5634 5634 5636 5633 5632 5631 5631 5628 5625 5624 5623 5622 5621 5620 5618 5616 5615 5614 5613 5611 5610 5608 5607 5605 5604 5602 5600 5598 5596 5594 5592 5589 5587 5584 5582 5579 5576 5574 5571 5568 5565 5562 5558
5626 5624 5627 5624 5622 5621 5620 5618 5616 5615 5613 5612 5611 5610 5608 5607 5605 5604 5602 5601 5599 5598 5596 5595 5593 5591 5590 5588 5586 5583 5581 5579 5576 5574 5571 5568 5566 5563 5560 5557 5554 5551 5547 5544
5615 5616 5614 5612 5610 5609 5607 5606 5605 5603 5602 5601 5600 5598 5597 5595 5594 5592 5591 5589 5587 5586 5584 5582 5580 5578 5576 5574 5572 5570 5568 5565 5563 5560 5557 5555 5552 5549 5546 5543 5540 5536 5533 5530
5602 5602 5601 5599 5597 5596 5594 5593 5592 5591 5590 5588 5587 5586 5584 5583 5581 5580 5578 5576 5574 5573 5571 5569 5567 5565 5563 5561 5558 5556 5554 5552 5549 5547 5544 5541 5538 5535 5532 5529 5525 5522 5518 5515
5588 5589 5587 5586 5584 5583 5581 5580 5579 5578 5576 5575 5574 5572 5571 5569 5568 5566 5564 5563 5561 5559 5557 5556 5553 5551 5549 5547 5545 5543 5541 5538 5536 5533 5531 5528 5525 5522 5519 5515 5511 5507 5503 5499
5576 5575 5572 5573 5571 5569 5568 5567 5565 5564 5563 5561 5559 5558 5556 5555 5554 5552 5550 5549 5547 5545 5543 5542 5539 5538 5535 5533 5531 5529 5527 5525 5522 5520 5517 5514 5512 5509 5505 5501 5497 5492 5488 5484
5560 5559 5558 5558 5557 5555 5553 5552 5551 5549 5548 5547 5545 5543 5542 5540 5539 5537 5536 5534 5532 5531 5529 5527 5525 5523 5521 5519 5517 5515 5513 5511 5508 5506 5503 5501 5498 5495 5492 5488 5483 5478 5473 5469
5546 5545 5544 5544 5542 5541 5539 5537 5536 5535 5533 5532 5530 5529 5527 5526 5524 5523 5521 5519 5518 5517 5515 5513 5511 5509 5507 5505 5504 5502 5499 5497 5494 5492 5489 5486 5483 5480 5477 5473 5470 5465 5460 5455
5531 5530 5529 5529 5528 5526 5524 5523 5521 5520 5519 5517 5516 5514 5513 5511 5510 5508 5506 5505 5504 5502 5501 5499 5497 5496 5493 5492 5490 5487 5485 5483 5480 5478 5475 5472 5469 5465 5462 5458 5455 5451 5447 5442
5517 5516 5515 5514 5513 5511 5510 5509 5508 5507 5505 5504 5502 5501 5499 5497 5496 5494 5493 5491 5490 5489 5487 5485 5484 5482 5480 5478 5476 5474 5471 5469 5466 5464 5461 5458 5455 5451 5448 5444 5441 5437 5433 5429
5504 5503 5502 5500 5499 5498 5497 5495 5494 5493 5492 5491 5489 5488 5486 5484 5483 5481 5480 5478 5477 5475 5474 5472 5471 5469 5467 5465 5463 5461 5458 5456 5453 5450 5447 5444 5441 5438 5434 5431 5427 5423 5420 5415
5490 5489 5488 5487 5486 5485 5484 5483 5482 5481 5480 5478 5477 5475 5474 5472 5471 5469 5468 5466 5465 5463 5461 5459 5458 5456 5454 5452 5450 5448 5446 5443 5440 5437 5434 5431 5428 5424 5421 5417 5414 5410 5406 5402
5478 5477 5476 5475 5475 5473 5472 5471 5470 5469 5468 5466 5465 5463 5462 5460 5459 5457 5456 5454 5452 5451 5449 5447 5445 5443 5441 5439 5437 5435 5433 5430 5428 5425 5421 5418 5415 5411 5408 5404 5400 5396 5392 5388
5467 5466 5465 5464 5463 5462 5461 5459 5458 5457 5456 5454 5453 5452 5450 5449 5447 5446 5444 5442 5440 5438 5437 5435 5433 5431 5430 5428 5425 5423 5421 5418 5415 5412 5409 5405 5402 5398 5395 5391 5387 5383 5379 5375
5456 5455 5454 5453 5452 5451 5449 5448 5447 5445 5444 5443 5442 5440 5439 5438 5436 5434 5432 5431 5429 5427 5426 5424 5422 5420 5418 5416 5414 5411 5408 5406 5402 5399 5396 5393 5389 5386 5382 5379 5375 5371 5367 5363
5445 5444 5443 5442 5441 5440 5438 5437 5436 5435 5433 5432 5431 5429 5428 5427 5425 5423 5421 5420 5418 5416 5414 5413 5411 5409 5407 5404 5402 5399 5396 5393 5390 5387 5383 5380 5377 5374 5370 5366 5363 5359 5355 5351
5435 5434 5433 5432 5430 5429 5428 5426 5425 5424 5423 5421 5420 5419 5417 5415 5414 5412 5411 5409 5406 5405 5403 5401 5399 5397 5394 5392 5389 5386 5383 5380 5377 5374 5371 5368 5365 5362 5358 5355 5351 5347 5344 5341
5425 5423 5422 5421 5420 5418 5417 5416 5414 5413 5411 5410 5409 5407 5405 5404 5403 5401 5399 5397 5395 5393 5391 5389 5387 5384 5382 5379 5377 5374 5371 5368 5365 5362 5359 5356 5353 5350 5347 5343 5340 5337 5333 5330
5414 5412 5411 5410 5409 5407 5406 5404 5403 5402 5401 5399 5397 5395 5394 5392 5391 5389 5387 5385 5383 5381 5379 5377 5374 5372 5369 5367 5364 5362 5359 5356 5353 5350 5348 5345 5342 5339 5336 5333 5330 5327 5324 5322
5403 5401 5400 5398 5397 5396 5394 5393 5392 5390 5389 5387 5386 5384 5382 5380 5379 5377 5375 5373 5371 5369 5367 5364 5362 5360 5357 5355 5352 5350 5347 5344 5342 5339 5336 5334 5331 5328 5326 5323 5321 5318 5316 5314
5392 5390 5389 5387 5386 5384 5382 5381 5380 5378 5377 5375 5374 5372 5370 5368 5366 5365 5363 5361 5359 5357 5354 5352 5350 5348 5346 5343 5341 5338 5336 5333 5330 5328 5325 5323 5321 5319 5316 5314 5312 5310 5308 5306